RH
39 36 31 27 24 22 19 17 15 22 29 24 17 14 10 9 9 10 14 21 32 43 45 38 25 18 19 20 21 22 22 22 17 17 39 69 82 82 79 77 77 75 71 73 76 75 74 72 65 58 56 54 50 49 45 40 40 41 41 41 41 43 35 16 8 13 17 21 22 20 16 16 20 22 21 17 10 8 9 9 8 7 7 8 10 12
46 41 34 30 29 26 22 18 16 19 29 31 23 18 14 11 8 8 10 13 21 32 39 40 32 24 21 21 21 23 24 24 22 15 20 49 77 82 74 72 74 75 74 75 76 73 71 70 64 59 59 57 53 52 48 44 41 40 39 39 41 42 29 11 8 10 13 17 18 16 15 16 19 19 19 16 9 8 9 9 8 7 8 10 11 13
54 47 42 41 37 31 25 21 17 16 24 35 32 23 18 15 10 8 9 10 14 21 29 36 36 31 29 27 23 23 23 23 23 20 14 26 57 77 73 66 70 77 80 78 77 72 68 68 66 62 61 60 54 48 43 42 39 34 34 36 35 28 15 9 10 9 11 16 14 13 13 14 17 18 17 13 8 8 9 9 9 8 9 11 13 17
43 40 41 46 45 40 33 26 23 18 18 31 39 30 21 18 14 10 8 9 12 15 19 28 34 34 38 36 28 23 22 22 22 22 18 15 30 54 63 61 66 77 84 82 78 71 65 67 67 62 62 62 55 47 41 38 35 30 28 27 20 13 10 10 10 8 10 13 11 11 11 12 16 17 15 11 8 8 10 10 10 9 9 11 13 19
26 28 30 32 38 43 41 34 28 24 18 22 37 39 27 20 18 13 10 11 12 13 12 19 28 31 39 42 33 26 22 21 22 21 21 17 15 29 45 53 61 75 84 79 71 67 62 64 69 65 62 61 54 47 41 36 34 26 19 16 13 11 11 11 9 7 8 8 8 9 9 12 16 17 14 9 7 8 10 11 11 10 10 11 13 20
22 29 31 25 26 32 39 41 35 30 23 18 28 41 36 24 21 16 12 13 14 13 10 13 21 26 34 41 37 34 29 22 22 20 20 20 15 17 28 41 50 61 71 69 65 63 58 60 70 66 58 56 52 44 36 31 26 19 13 12 13 12 11 11 9 7 6 6 7 8 9 13 16 17 13 8 7 9 10 11 12 12 12 12 17 27
28 38 39 32 29 29 31 37 39 37 32 21 19 35 45 31 22 20 13 13 15 11 9 11 17 21 30 41 41 42 39 29 24 21 19 20 18 15 18 28 36 38 42 46 49 52 53 57 63 58 51 48 44 35 26 21 17 14 13 13 13 13 12 11 9 6 6 6 7 8 10 13 16 16 12 8 8 9 10 11 12 13 12 14 23 34
36 39 42 41 39 37 34 32 34 36 34 27 16 26 49 41 24 21 16 13 14 11 11 15 17 19 26 35 40 44 45 37 29 23 19 19 19 17 14 16 22 22 21 22 27 33 40 48 51 44 38 35 31 24 17 14 13 13 14 15 14 13 12 11 9 7 7 10 11 11 12 13 16 16 12 9 9 10 11 11 11 13 13 17 27 39
42 35 44 55 50 41 37 31 35 46 41 28 18 25 51 51 29 21 19 15 15 15 16 18 18 17 18 23 32 42 46 42 36 27 19 16 16 16 14 12 13 14 14 14 15 18 23 30 31 26 23 24 22 17 14 14 15 16 16 15 14 12 11 10 9 8 9 14 15 13 13 15 15 14 12 10 10 11 11 10 12 12 15 24 36 47
49 40 43 56 61 57 50 38 50 79 68 33 25 39 56 54 33 23 22 18 20 21 19 18 18 16 11 14 29 43 45 42 39 31 21 15 13 15 14 13 13 12 13 13 12 13 15 15 16 18 21 25 23 17 15 17 18 18 17 15 13 12 11 10 9 9 10 14 16 15 15 15 14 14 13 11 11 12 12 12 12 12 22 41 52 52
54 53 44 42 57 76 82 68 66 90 87 59 53 61 64 54 36 26 23 22 25 23 16 14 16 16 9 8 25 41 41 37 37 32 25 19 14 14 16 15 15 13 13 14 13 12 13 12 13 19 25 27 24 18 16 19 19 19 17 14 13 11 10 10 10 10 10 12 14 14 15 14 14 14 12 12 12 13 13 13 13 18 37 53 52 47
46 49 46 42 45 62 87 95 88 90 91 86 85 78 66 52 38 30 27 28 29 22 13 12 14 16 11 5 16 31 32 32 35 32 28 25 18 15 15 16 16 14 13 14 14 13 12 12 13 16 20 20 18 15 16 19 19 19 17 14 13 12 12 12 13 13 12 12 14 14 14 14 14 13 12 13 13 13 14 14 18 30 43 46 42 44
46 45 48 50 45 45 65 89 99 100 97 99 97 81 63 50 42 36 32 30 28 18 11 12 14 15 11 5 9 20 27 32 34 30 28 28 25 18 14 15 16 15 14 13 13 14 13 12 13 14 15 15 14 15 17 18 18 18 16 15 16 16 18 21 20 21 19 17 16 14 14 13 13 13 12 13 13 15 15 15 23 36 40 40 43 47
57 58 57 56 53 47 50 69 92 102 102 103 96 77 58 48 45 41 35 31 27 19 14 13 14 14 11 6 6 12 23 32 31 27 28 29 29 25 16 13 15 15 15 14 13 14 13 13 13 14 16 15 15 16 17 17 17 17 16 17 19 20 27 34 34 30 26 21 17 13 12 13 13 12 12 14 14 14 14 15 24 36 40 42 45 40
61 64 67 65 61 53 45 59 88 101 101 102 98 84 65 51 49 46 38 34 29 20 15 14 15 14 11 8 6 7 17 28 29 26 29 31 31 31 24 15 13 14 15 15 15 14 14 14 13 15 16 16 16 17 17 17 16 17 19 20 20 20 24 35 39 35 29 26 22 16 13 12 12 12 13 13 13 15 18 23 30 38 41 41 34 23
62 65 75 69 60 54 43 53 86 103 100 101 103 96 77 61 56 50 38 36 37 29 18 14 16 14 11 10 8 5 12 26 35 35 34 32 30 31 30 22 14 11 13 13 14 14 14 15 15 15 16 16 16 16 15 16 15 16 20 21 20 18 18 25 32 31 30 30 27 21 14 11 11 12 13 13 16 22 27 29 33 37 38 31 19 12
61 64 71 61 53 54 45 48 77 98 97 99 105 97 82 71 64 54 43 37 35 31 21 16 16 14 11 11 9 6 8 19 33 38 33 28 27 29 31 28 20 12 11 11 12 13 13 15 15 15 16 16 15 15 14 15 15 16 19 20 18 17 16 19 24 26 27 27 24 19 13 10 11 12 13 16 22 27 27 23 23 26 24 17 10 11
58 55 56 48 46 51 44 39 60 87 94 97 105 98 82 78 71 62 60 59 47 31 21 18 16 14 13 12 10 8 7 10 20 29 29 29 32 33 32 32 27 18 12 10 10 12 13 14 15 15 15 15 14 15 15 15 15 17 19 19 17 15 15 19 24 26 26 24 19 15 10 9 11 12 14 20 25 25 18 13 13 14 12 9 10 13
61 58 52 47 46 45 41 32 42 75 90 87 97 100 88 85 86 74 68 75 65 37 22 19 17 15 14 12 10 9 6 5 11 19 27 36 42 41 38 38 36 27 19 13 10 11 12 13 14 14 14 14 14 14 15 15 16 17 18 17 15 15 15 20 24 24 23 23 18 12 8 8 11 13 15 20 22 17 10 8 8 8 9 8 9 14
74 71 59 53 52 45 40 32 31 58 83 84 90 103 98 94 102 93 74 68 59 37 23 21 20 18 15 13 10 8 10 12 18 24 32 41 45 43 41 41 39 34 27 20 13 10 11 12 13 13 13 13 13 14 14 15 16 16 17 16 14 14 16 18 21 20 22 23 18 11 8 9 12 14 16 18 16 11 8 8 7 7 8 7 10 21
92 91 78 65 58 49 43 37 30 44 73 89 91 100 104 99 103 98 74 56 47 37 28 24 24 19 15 15 8 13 34 47 50 53 50 48 46 42 39 36 34 31 28 26 21 15 13 12 12 12 12 12 11 13 14 14 16 16 15 15 13 14 16 18 20 23 25 24 17 11 9 12 15 14 15 14 11 9 7 7 9 8 6 9 19 30
100 102 95 79 63 55 49 41 35 36 59 86 91 93 101 101 101 97 74 49 38 34 30 28 27 20 16 15 7 24 61 72 70 70 60 53 49 42 36 31 27 25 25 27 26 21 17 14 12 11 10 10 10 11 14 15 16 15 14 14 13 14 15 19 24 28 29 25 16 10 11 14 15 13 13 11 9 9 7 11 18 12 8 18 30 34
102 101 101 94 77 62 51 44 39 32 42 71 83 86 97 101 103 101 81 57 44 38 34 33 29 19 18 14 7 33 67 67 65 72 63 54 46 34 28 25 22 23 25 28 26 22 20 16 14 11 8 8 9 11 14 15 15 15 14 13 12 14 16 20 28 32 30 25 16 10 12 15 14 12 11 9 10 8 7 16 22 13 13 28 34 34
97 98 97 98 92 76 55 42 42 37 34 52 69 78 92 100 98 91 77 64 55 46 40 38 30 18 18 14 9 38 70 69 73 82 72 57 43 30 24 20 20 22 24 27 25 21 19 16 12 10 7 7 10 12 14 14 14 14 13 13 13 15 17 22 32 34 30 24 15 10 13 14 13 12 10 10 10 8 10 17 17 13 21 31 32 33
94 97 92 88 90 94 81 53 40 39 32 37 58 73 81 93 92 77 70 69 59 48 44 39 26 15 15 11 9 41 77 84 90 95 82 62 42 30 22 17 20 24 24 27 26 20 18 15 10 7 6 8 11 13 14 13 14 13 12 13 14 15 18 25 32 32 29 24 15 11 14 14 13 11 10 10 9 8 14 18 14 15 24 29 31 35
84 83 82 71 60 75 98 84 52 41 35 31 47 69 77 85 85 71 68 69 56 48 45 32 18 13 16 12 12 49 89 97 100 104 87 61 41 30 24 20 23 27 27 27 24 19 17 13 9 7 6 9 11 12 14 13 13 13 12 13 15 17 21 25 29 30 28 23 14 12 14 13 12 11 10 10 8 9 14 15 14 18 24 28 33 36
81 75 71 65 46 46 80 98 75 50 41 32 39 61 67 67 70 66 62 57 48 43 37 26 16 10 16 21 24 59 97 99 101 103 81 54 40 32 28 25 28 31 30 26 21 18 15 10 8 8 7 10 11 11 13 12 12 12 13 15 17 19 22 23 27 30 27 20 13 13 15 13 12 11 10 9 8 11 16 16 16 20 23 29 37 36
95 92 78 70 57 42 49 73 78 60 40 30 38 57 63 55 52 51 46 41 41 38 29 25 18 8 25 43 42 68 100 99 100 98 70 43 35 34 34 30 30 33 30 25 19 16 13 10 9 10 9 10 11 11 12 11 12 13 14 17 18 20 20 22 27 29 22 15 13 13 14 13 12 11 9 10 11 15 18 19 19 20 21 29 39 38
96 99 94 84 76 68 53 50 66 65 41 26 36 54 61 53 41 37 37 37 42 38 27 25 17 12 39 58 53 77 102 98 96 88 61 44 40 40 39 33 30 33 31 27 21 15 13 13 12 11 11 11 10 11 11 10 11 14 15 16 17 18 19 23 27 24 15 12 13 14 14 12 11 10 9 12 17 18 18 18 18 18 19 28 41 40
89 93 98 95 93 94 69 38 44 59 42 25 34 47 52 51 41 36 35 37 45 39 25 26 21 21 51 66 65 89 101 91 90 81 64 59 55 47 42 37 37 37 32 27 23 16 12 12 11 11 10 10 10 10 11 11 13 15 15 16 15 15 18 23 25 18 11 12 14 14 14 12 11 10 9 13 18 18 16 14 15 17 18 26 40 43
72 83 91 93 94 92 70 36 31 45 38 24 29 40 48 49 43 39 36 40 44 29 21 37 35 31 58 74 76 92 97 87 86 79 69 69 65 54 46 41 42 38 33 36 36 31 25 19 17 14 9 9 9 10 13 14 14 17 17 17 16 16 19 23 20 13 10 13 14 13 13 12 10 10 12 15 18 17 16 14 13 16 17 23 39 47
52 64 79 90 95 95 87 59 30 26 29 26 27 34 43 47 41 38 35 31 27 23 40 66 59 51 76 88 83 91 92 82 78 73 70 71 68 61 50 45 46 42 46 57 57 50 44 36 29 25 21 20 16 12 15 16 17 19 18 17 17 18 22 23 17 11 11 13 14 13 13 11 9 11 14 18 19 17 15 14 13 15 17 23 38 50
50 46 61 76 82 88 97 81 44 24 20 20 24 30 36 40 37 31 27 27 41 62 84 88 72 76 98 97 89 94 88 76 73 71 68 68 68 63 54 51 52 48 53 61 55 49 47 40 35 31 31 34 29 23 22 21 21 21 18 18 19 20 23 21 13 10 11 12 13 12 12 12 10 10 14 17 20 18 15 14 13 15 17 22 36 49
51 37 45 56 65 76 89 85 67 53 34 19 23 29 31 33 30 28 39 60 84 97 96 83 76 91 103 96 94 99 90 78 73 69 66 66 67 62 54 52 52 46 47 47 42 43 44 39 35 30 30 37 39 35 32 27 25 22 20 21 21 21 23 18 11 10 11 12 12 11 12 11 9 11 15 19 20 18 15 13 14 15 18 22 34 49
44 36 37 46 58 69 72 66 60 63 54 36 27 25 26 32 40 51 70 91 99 93 87 83 82 89 95 95 95 93 86 80 75 71 68 65 63 59 52 51 49 39 33 33 36 43 46 39 32 27 27 34 37 39 38 32 26 23 20 21 22 22 23 16 9 10 11 11 12 11 11 11 9 13 20 23 20 15 13 14 16 17 18 24 35 46
44 45 47 53 62 68 69 62 52 52 50 42 37 36 40 52 67 79 89 97 98 93 90 89 84 82 87 95 96 89 85 83 74 69 67 61 57 56 53 52 49 38 29 27 33 42 41 32 26 24 27 34 40 45 43 33 24 21 19 20 21 23 22 15 10 11 11 11 11 11 11 11 10 13 20 23 18 13 14 17 18 19 19 24 35 42
56 60 64 64 64 65 67 60 47 42 41 39 42 49 57 66 74 81 91 99 100 96 91 87 83 78 79 88 94 90 89 88 76 63 61 62 57 54 58 62 55 40 30 25 32 47 48 39 36 35 34 42 50 49 38 27 21 20 19 20 23 25 20 13 10 11 11 11 11 11 12 12 12 13 17 18 14 13 18 20 20 20 18 24 36 42
85 83 73 61 57 63 67 53 34 32 40 45 48 50 56 65 71 79 92 102 102 99 94 86 75 64 64 76 84 82 85 88 76 57 56 65 62 54 69 85 71 47 37 34 44 65 71 65 64 59 51 50 50 41 31 26 23 20 19 21 25 25 19 13 13 12 11 10 11 12 13 13 13 14 17 18 16 16 21 22 20 19 19 26 37 42
99 93 69 50 50 66 75 63 44 37 43 55 58 51 55 71 80 83 90 96 100 101 98 89 72 56 58 68 69 65 68 72 70 59 55 68 76 71 82 95 80 61 59 56 56 73 82 75 69 64 56 50 42 34 30 27 22 19 20 24 25 23 19 17 17 14 12 12 12 14 16 14 13 14 16 16 17 20 23 23 21 19 22 32 40 42
95 98 82 61 52 60 71 68 55 43 42 52 54 46 56 78 85 84 91 98 99 99 99 93 77 59 55 60 58 57 56 58 71 74 60 61 76 79 80 82 69 65 76 73 63 72 80 73 63 57 50 42 37 33 30 25 22 20 22 24 24 22 23 23 21 17 14 15 17 18 17 15 15 18 20 20 25 28 25 21 22 25 32 41 43 41
94 101 98 80 59 54 61 61 54 45 42 46 49 51 64 78 78 79 90 98 98 99 100 97 84 64 47 43 57 78 79 69 78 84 68 60 67 68 72 81 75 71 77 72 63 67 70 64 57 52 44 38 35 32 27 22 19 18 21 25 24 25 27 26 23 19 17 19 22 20 19 17 17 28 44 56 63 60 41 28 32 39 43 44 40 33
99 99 98 89 70 56 54 53 51 53 53 47 44 49 58 65 66 68 76 83 88 95 100 98 95 82 54 36 55 91 101 87 84 85 76 75 76 70 75 91 94 89 83 68 56 57 60 57 51 41 35 34 33 30 27 22 17 15 19 24 25 28 30 28 24 21 21 25 26 23 23 21 21 39 66 81 87 84 67 50 47 47 43 38 33 29
102 101 99 94 78 61 52 47 42 44 49 48 44 45 50 55 59 62 69 75 77 82 89 94 98 98 83 68 73 91 97 92 90 89 82 80 82 79 81 89 93 95 92 74 52 41 41 45 44 38 35 34 31 28 25 20 16 16 18 22 27 30 32 31 27 23 25 31 31 27 26 24 31 56 76 79 83 87 76 57 46 39 34 32 30 30
99 100 102 98 83 62 50 50 50 45 40 39 41 45 47 50 55 62 72 78 78 80 87 92 96 99 98 95 94 96 94 89 87 90 87 79 74 76 80 83 84 83 81 74 64 60 59 57 52 47 42 36 29 28 27 22 19 17 17 22 29 31 33 35 31 27 30 34 33 30 27 26 41 64 71 65 69 73 60 43 35 32 30 30 30 30
97 97 100 101 95 80 65 69 83 80 61 47 44 44 43 48 60 70 73 75 83 92 93 90 94 100 100 99 99 100 99 91 85 87 88 80 73 71 71 78 84 83 79 75 73 77 85 86 81 76 68 54 42 37 35 28 24 22 22 26 30 33 37 39 35 33 36 37 34 31 28 28 42 55 52 45 48 49 40 33 32 31 31 32 32 33
92 91 90 92 96 96 90 90 96 97 87 70 55 49 50 54 62 70 69 71 81 89 86 82 90 99 101 99 100 102 101 94 88 89 87 80 78 74 67 67 72 76 82 83 76 72 77 84 90 96 96 88 75 62 49 36 29 28 29 31 34 39 43 43 41 40 40 37 35 32 29 32 41 44 39 36 38 37 35 35 35 35 36 37 37 38
85 83 82 83 86 90 97 101 98 98 99 83 61 65 78 68 52 54 65 73 77 79 77 80 90 98 99 97 99 102 97 87 85 89 86 78 74 70 63 61 60 61 68 73 72 71 73 75 79 84 90 94 91 83 73 61 50 46 43 40 42 46 49 48 46 43 40 37 35 32 32 38 43 40 37 37 38 38 39 39 39 40 41 41 41 42
77 77 76 79 79 79 86 96 98 100 100 80 63 78 96 82 60 58 64 64 67 74 80 82 85 86 86 90 99 102 93 83 82 85 81 74 69 64 59 58 57 57 58 57 57 60 62 66 70 72 76 78 75 72 73 70 66 62 55 46 45 51 54 52 47 42 40 38 35 35 39 43 43 41 40 42 42 43 44 43 42 42 41 41 41 41
67 71 73 75 79 82 85 92 98 102 98 84 74 80 87 83 80 80 71 59 62 78 89 89 80 73 74 84 93 92 82 75 74 71 67 64 62 59 56 53 51 50 49 48 48 49 53 60 66 70 76 78 72 66 66 67 68 69 65 58 57 60 57 49 43 41 41 40 40 42 46 46 44 43 45 47 47 47 45 43 41 40 40 40 40 42
61 65 69 71 78 84 83 84 93 100 97 91 86 82 78 78 82 83 81 77 76 79 87 93 89 84 86 92 88 77 70 67 61 53 49 49 49 47 46 44 42 40 40 41 43 43 46 52 59 64 76 87 88 82 77 71 68 72 76 77 71 60 48 41 42 43 44 46 49 51 49 47 47 49 50 51 49 47 44 42 41 40 41 43 45 49
58 58 60 63 69 76 75 77 89 99 99 97 91 83 80 84 82 81 88 95 89 79 82 93 98 95 93 92 81 68 63 61 54 47 42 38 37 38 36 34 34 34 37 42 49 51 51 51 52 54 63 77 88 92 92 88 80 77 80 78 64 48 41 42 45 46 49 53 56 54 51 51 52 53 53 52 49 46 44 43 42 43 46 50 55 60
Wind_Speed
39 41 42 41 41 42 43 44 46 48 50 50 48 49 49 50 52 54 56 55 53 57 62 65 69 71 69 66 64 62 60 58 58 59 63 67 65 62 60 57 55 54 49 44 43 43 43 41 39 38 37 36 34 33 33 32 32 28 27 31 34 34 33 33 31 31 32 31 31 30 29 26 23 21 21 22 22 20 19 18 18 17 16 15 14 14
39 40 40 39 41 44 44 44 46 49 52 52 52 52 51 50 50 50 52 53 51 55 60 64 69 71 70 68 65 63 61 59 59 58 61 66 67 64 62 59 57 56 52 49 48 46 45 44 42 40 39 39 38 38 38 37 36 32 30 33 34 34 34 33 31 31 32 31 31 30 28 25 22 21 21 22 21 20 19 18 18 17 16 15 14 13
35 36 36 39 43 45 45 45 45 48 51 54 54 54 54 52 50 49 50 50 49 53 58 61 67 71 71 70 68 65 62 60 59 58 58 63 68 67 64 62 61 59 57 54 51 47 46 47 46 43 42 43 43 42 41 39 38 35 32 33 33 34 34 32 31 31 31 31 30 29 27 25 22 21 21 21 21 19 19 18 18 16 15 15 14 14
30 30 33 39 43 45 46 46 46 46 49 53 55 56 55 53 51 49 48 48 48 51 56 59 65 70 70 70 70 67 64 61 59 59 58 60 65 68 66 63 63 62 59 56 52 48 48 49 49 47 46 44 44 43 42 41 39 34 32 32 34 35 33 31 30 31 32 31 30 28 27 24 22 21 22 21 21 19 19 18 17 15 15 15 15 15
25 26 32 37 41 44 47 47 47 47 47 50 53 55 55 53 52 50 47 47 47 49 53 57 63 69 69 69 70 68 65 64 61 60 60 60 61 64 66 66 65 64 62 58 54 51 51 52 51 49 47 45 45 46 45 43 39 33 31 33 35 35 33 30 30 30 31 30 29 28 26 23 22 22 22 22 21 20 19 18 16 15 15 16 16 16
21 24 29 34 39 43 45 47 48 49 48 48 51 53 54 53 52 50 47 46 47 49 51 54 60 67 67 67 68 66 64 64 63 61 61 61 59 61 64 67 66 66 65 62 58 55 55 55 53 51 50 50 50 50 47 42 36 32 31 34 36 35 32 29 29 29 29 29 29 28 26 23 22 22 23 22 21 20 20 18 16 15 16 17 17 16
19 22 26 30 36 41 45 47 47 49 50 50 49 50 52 53 52 50 48 48 48 50 50 51 57 64 64 64 64 63 61 63 63 62 62 61 60 60 61 65 66 65 64 63 61 60 59 58 57 55 54 54 53 50 46 39 34 31 31 35 36 34 31 28 28 28 28 28 29 29 27 24 22 23 23 22 21 21 20 18 16 16 17 17 16 16
17 21 24 27 31 36 41 45 46 47 51 51 47 47 51 53 53 51 49 50 49 48 49 51 55 61 63 63 63 61 59 62 63 63 64 63 61 60 60 61 63 62 61 61 61 61 61 60 58 56 55 53 52 48 43 36 31 30 32 35 36 32 29 27 27 27 27 28 30 30 28 25 23 24 23 22 22 22 20 17 17 17 17 17 16 16
17 19 21 24 28 32 35 38 42 44 49 50 46 46 50 51 53 52 50 51 49 48 51 50 52 58 63 62 61 61 60 62 64 65 65 64 62 62 60 60 60 60 60 60 60 60 60 59 57 54 53 51 50 46 39 34 31 31 33 34 33 30 28 28 27 27 27 28 29 30 28 25 24 25 24 23 23 22 19 17 18 18 17 17 16 15
19 20 19 22 24 26 29 32 36 40 44 48 46 48 50 51 53 52 52 51 49 51 52 49 49 55 61 61 59 60 61 62 65 65 65 65 63 62 62 60 59 59 59 59 60 59 59 57 54 52 50 49 48 43 37 34 32 31 31 32 31 29 28 28 26 27 27 28 29 30 28 26 25 25 24 24 23 21 18 18 18 18 17 16 15 15
19 22 22 22 21 22 25 28 33 37 41 44 46 47 49 51 52 52 52 51 50 54 53 49 48 53 60 61 58 58 61 62 64 65 65 64 64 64 63 62 61 60 59 58 58 58 57 54 51 50 49 49 46 41 36 34 32 30 29 30 30 29 27 27 26 27 28 29 30 29 28 26 26 25 25 24 22 20 19 18 18 17 16 15 15 16
20 23 22 22 21 21 23 26 31 36 38 41 44 45 47 49 50 51 52 51 52 55 53 49 48 52 60 62 57 57 60 61 63 65 65 64 64 64 64 63 62 61 60 59 58 57 55 53 51 50 49 48 44 39 35 33 31 29 29 30 30 27 26 26 27 28 28 29 30 30 28 26 26 25 24 23 22 20 19 18 17 17 16 15 16 17
20 21 21 21 22 23 23 23 27 34 36 38 41 44 46 48 48 50 51 51 53 54 52 48 47 51 59 60 56 57 60 60 62 64 64 64 63 64 64 64 62 61 61 60 59 57 55 53 51 49 47 45 40 35 33 30 30 29 29 29 28 25 25 26 27 28 28 30 31 30 28 26 26 25 24 22 21 20 19 18 17 17 16 16 17 18
18 19 21 21 21 22 24 23 24 30 33 35 38 41 44 46 46 49 50 50 51 51 49 45 46 51 56 57 55 56 58 59 60 62 63 63 62 62 63 64 63 62 61 61 60 58 56 54 51 48 46 42 37 34 32 29 30 30 28 28 26 24 24 24 26 27 28 30 30 29 27 26 25 24 23 22 21 20 19 18 18 18 18 18 19 19
14 15 20 22 21 22 24 22 22 28 33 36 38 39 42 44 44 46 47 47 47 48 46 43 45 50 52 52 51 51 55 58 59 61 61 61 62 61 62 64 64 64 63 62 61 59 56 53 51 48 44 40 36 35 32 29 30 29 28 27 25 24 24 24 26 27 29 30 29 27 26 25 25 23 22 22 21 20 19 18 18 18 19 20 20 20
13 10 15 20 20 21 23 22 23 29 37 40 40 39 41 42 42 43 45 45 42 43 44 44 45 46 47 49 48 47 51 56 57 59 59 60 61 60 60 61 63 64 64 63 61 59 57 54 51 48 44 40 38 36 33 31 30 29 29 29 27 26 26 26 28 29 29 30 28 26 25 25 24 22 21 21 21 20 18 18 18 19 20 21 21 20
12 8 13 18 17 19 23 24 25 30 38 42 42 41 41 40 41 42 43 43 43 43 45 45 44 42 44 49 47 44 48 53 56 57 58 58 59 58 58 59 61 63 63 63 62 61 59 56 53 49 45 42 40 37 34 31 29 28 30 31 29 29 28 28 29 30 30 29 26 24 24 24 22 20 20 21 20 19 18 18 19 20 21 21 21 20
12 8 13 16 14 18 23 25 25 28 36 41 41 41 41 40 40 41 40 39 40 43 45 44 42 40 43 48 47 43 45 50 54 55 56 56 55 55 55 55 58 62 63 63 63 61 58 55 52 49 46 44 41 38 34 31 29 30 32 32 31 30 29 28 30 32 31 29 25 23 23 23 21 20 21 21 20 19 19 19 20 20 21 21 21 21
13 11 13 13 12 17 23 26 25 26 33 38 38 39 41 40 39 40 40 38 38 42 44 44 42 41 43 47 46 42 42 45 48 50 51 52 52 52 53 53 55 59 61 62 62 60 58 55 53 50 47 45 42 39 36 33 32 33 34 34 32 31 30 31 33 33 32 29 25 24 23 22 20 20 21 21 20 20 20 20 21 21 22 22 21 21
15 13 13 12 11 16 22 25 24 24 29 35 38 41 42 41 40 39 40 40 39 42 44 44 43 42 43 44 40 37 36 37 40 43 44 48 50 52 53 54 54 56 58 58 59 58 56 55 53 50 48 46 43 40 38 36 35 35 37 36 33 32 32 33 34 34 32 28 25 24 22 20 19 21 22 22 21 21 21 21 21 22 22 22 21 21
16 14 14 12 10 14 19 22 23 24 27 33 39 42 43 43 41 39 41 42 42 42 43 43 44 42 40 39 35 36 38 38 41 44 45 46 48 51 53 54 55 56 55 54 55 56 55 54 51 48 47 46 43 41 40 37 36 37 38 36 34 33 33 34 35 34 32 28 25 23 21 20 21 22 23 22 21 21 22 22 22 22 22 21 21 20
17 15 14 12 9 11 15 20 24 27 29 32 37 41 43 42 41 40 42 44 43 42 42 43 41 38 36 36 38 43 46 44 44 46 45 45 48 51 53 53 54 55 52 50 50 52 52 51 48 47 47 46 44 43 41 39 39 40 39 37 34 34 35 36 35 35 32 28 25 23 21 21 23 23 23 22 22 22 22 22 22 22 21 21 20 19
19 16 13 12 10 12 15 21 26 29 30 33 36 40 43 44 42 41 42 43 44 44 43 42 39 36 37 38 42 47 47 43 42 44 44 46 49 51 52 52 53 53 50 48 48 48 46 44 44 46 46 45 44 43 42 40 41 41 39 36 35 36 37 36 35 34 31 27 25 23 22 23 24 24 23 23 23 22 22 22 22 21 21 21 20 19
18 16 13 13 12 13 16 21 26 30 32 34 35 39 43 44 42 41 41 42 44 45 43 42 38 36 38 40 43 48 48 45 45 47 47 48 50 50 51 52 52 51 49 47 47 47 43 40 42 45 44 43 43 43 42 41 41 41 38 36 36 37 37 36 35 34 31 27 24 23 23 24 25 24 24 24 23 22 22 22 22 21 21 21 20 18
14 13 12 13 13 13 16 21 25 30 34 34 34 37 41 42 40 40 40 42 45 44 42 41 35 35 39 41 45 50 52 51 49 48 50 52 50 48 48 50 49 48 47 46 47 47 44 41 43 43 42 43 43 42 42 42 42 39 37 36 37 37 37 36 35 34 30 25 23 23 24 25 25 25 25 24 23 22 22 21 22 22 22 21 20 18
16 14 12 11 12 13 14 18 22 27 32 33 34 36 39 41 41 39 39 40 42 40 40 38 32 35 40 40 46 53 55 53 49 46 51 52 47 44 45 46 46 45 46 47 48 48 45 44 44 44 44 44 43 43 43 43 41 38 37 37 37 37 37 36 35 33 28 24 23 24 25 26 26 26 25 24 22 21 21 22 22 22 21 20 19 18
20 17 14 12 11 11 10 17 20 23 28 32 33 35 38 41 40 38 36 37 37 37 40 38 33 36 38 35 44 55 56 52 48 47 51 49 43 43 43 43 43 43 45 47 48 47 44 44 44 44 45 45 44 44 43 41 39 38 38 38 38 37 36 35 34 30 26 23 23 25 26 27 27 26 25 23 22 21 22 22 22 22 21 20 19 18
19 17 16 15 12 8 4 14 18 20 26 32 34 35 38 40 39 37 35 35 36 39 42 39 35 35 35 32 45 55 53 50 48 49 53 48 43 44 44 42 42 43 44 45 45 44 43 42 43 44 44 44 43 42 40 39 38 39 39 39 38 37 35 33 31 28 24 23 25 27 28 28 27 26 25 23 21 21 22 22 21 21 21 20 19 18
18 17 19 20 13 8 6 5 14 18 22 30 34 35 38 40 40 38 36 37 39 40 40 35 32 34 35 34 48 53 46 45 48 52 54 50 46 48 46 43 42 42 42 42 43 43 42 41 42 42 42 41 40 39 38 38 39 40 40 39 38 36 34 32 29 25 23 24 26 28 28 28 27 26 24 23 22 22 23 23 22 22 22 21 20 18
19 17 19 21 15 10 12 6 8 15 19 28 33 33 35 38 40 39 38 38 37 37 34 28 29 36 34 35 48 48 41 43 48 52 54 50 48 49 46 42 41 40 40 40 40 40 41 41 41 40 39 38 37 37 37 38 40 40 39 38 36 35 33 30 28 25 24 25 27 29 29 28 27 25 23 22 22 23 24 24 23 23 23 22 20 18
19 18 18 18 15 13 15 13 6 10 17 26 31 32 33 34 36 36 35 34 33 32 28 24 29 36 33 36 46 43 39 43 48 50 49 45 44 45 43 41 39 38 38 38 38 38 38 38 38 38 37 36 35 36 37 39 40 39 38 36 35 33 31 29 27 25 25 27 28 29 29 28 26 25 23 23 23 24 24 24 24 24 24 23 20 18
16 18 18 16 14 12 13 15 12 7 13 22 27 30 29 28 28 28 28 29 29 27 23 22 26 32 34 39 44 41 40 45 47 47 45 42 41 41 41 39 36 36 39 39 37 36 35 34 35 34 33 31 32 35 36 38 38 37 36 34 33 31 30 29 27 26 27 29 29 29 28 27 26 25 24 23 24 24 24 24 25 25 25 23 21 19
13 14 17 18 16 12 10 12 13 7 9 17 22 23 22 22 21 20 21 22 19 16 16 19 24 31 34 38 41 42 43 45 47 46 44 41 41 39 39 37 35 36 40 40 37 35 33 32 33 32 30 29 30 32 35 37 37 35 34 33 32 31 30 29 27 27 29 30 29 29 28 27 26 25 24 24 25 25 25 26 26 26 25 23 21 20
11 11 14 18 18 14 12 13 13 8 7 12 17 19 19 19 18 18 19 16 10 8 12 17 24 30 30 33 39 43 43 44 45 44 42 42 40 38 39 40 38 40 42 40 36 31 28 29 31 30 29 28 29 32 34 36 35 35 34 33 32 31 30 29 28 29 30 30 29 28 28 28 27 26 25 25 26 26 26 27 27 27 26 23 21 20
11 11 13 15 17 15 12 11 9 6 4 6 12 16 17 17 19 22 21 13 4 5 10 15 20 25 26 32 39 41 40 42 43 42 42 42 40 39 41 42 42 45 46 42 35 29 27 29 30 30 29 29 31 34 36 35 35 35 35 34 32 32 31 30 30 30 30 30 29 28 28 28 27 26 26 26 26 27 27 28 28 27 26 24 22 22
9 11 12 13 14 12 9 7 3 1 3 5 9 12 15 18 19 17 13 6 1 1 6 9 14 20 25 31 37 38 37 38 41 43 44 43 41 40 40 40 41 43 44 41 35 30 28 29 30 30 31 32 34 35 35 34 35 35 33 32 32 32 32 31 31 31 31 30 29 28 29 29 27 26 26 27 27 27 28 28 28 28 27 25 23 23
8 10 11 10 10 8 6 3 2 4 5 6 9 12 15 15 11 6 4 2 3 3 2 6 11 18 24 29 32 34 32 32 37 43 44 42 41 40 39 38 38 38 39 38 34 29 27 28 29 31 34 35 35 34 33 33 35 34 32 32 32 32 32 32 31 31 31 29 28 29 30 29 27 27 27 27 28 28 29 29 29 28 27 25 24 23
12 10 8 7 7 5 4 3 5 7 7 6 8 10 11 9 6 2 2 2 3 3 1 7 12 20 25 27 30 32 30 30 35 40 42 42 42 41 40 39 38 36 37 37 34 31 30 30 31 33 35 36 35 34 34 35 34 32 32 32 32 32 33 32 32 32 30 29 29 30 30 29 28 28 27 27 28 29 29 29 29 28 27 25 24 24
16 13 9 8 7 5 3 3 6 8 7 7 9 10 9 6 3 2 5 6 5 4 4 8 14 20 25 27 28 28 27 28 32 38 41 42 41 41 40 39 37 35 36 37 36 34 33 33 34 35 36 37 36 36 36 35 33 32 32 32 33 33 33 33 32 31 30 29 29 30 30 29 29 28 28 28 29 29 29 28 28 27 26 25 24 23
18 15 11 9 7 4 4 2 5 6 7 9 13 13 10 7 4 4 8 8 5 8 10 8 13 19 24 26 26 25 26 26 27 33 40 41 40 40 39 37 37 36 36 37 37 36 35 36 36 36 36 36 36 36 36 35 34 34 33 34 34 34 33 33 32 31 30 29 30 31 31 31 30 29 29 28 28 28 28 27 27 26 25 24 23 23
16 16 12 8 6 5 3 4 4 4 6 9 12 14 12 8 3 3 2 4 3 7 11 9 12 18 23 26 25 24 27 30 27 27 36 40 40 40 40 38 38 39 39 38 37 37 36 36 36 36 36 36 36 36 35 34 35 35 35 36 35 34 34 34 33 32 31 31 31 32 32 31 29 29 30 30 28 26 25 24 25 25 24 24 22 21
16 15 13 9 6 5 5 2 4 4 4 6 9 13 14 13 14 12 5 2 2 2 7 8 10 16 23 29 30 25 23 28 29 26 29 34 38 40 39 36 36 38 39 39 38 37 36 35 35 35 36 36 37 36 35 35 35 37 38 38 36 35 36 36 35 33 33 33 33 34 33 30 28 28 30 30 29 27 24 23 24 24 23 22 22 22
17 16 14 11 6 5 5 5 3 3 4 5 7 10 11 11 12 11 7 6 5 3 5 7 8 13 21 29 29 21 17 22 26 24 23 28 34 36 36 33 32 34 37 38 38 37 36 35 35 35 36 37 38 38 38 38 38 39 39 39 38 38 38 37 37 36 35 34 35 34 32 29 28 29 29 28 28 27 24 22 23 22 22 22 22 23
17 16 16 13 7 3 4 4 5 7 8 8 9 9 8 6 6 6 7 9 9 6 4 6 8 10 17 23 21 17 17 19 20 19 21 25 29 31 31 30 29 30 34 37 39 39 38 38 38 39 39 40 40 41 41 40 40 41 41 41 40 40 40 39 39 38 36 36 35 34 30 27 26 28 28 27 26 24 22 22 22 22 23 23 23 24
18 15 14 14 9 2 2 3 5 8 9 11 12 12 11 9 7 6 6 7 8 7 4 4 7 7 12 17 18 18 19 18 18 18 20 24 26 27 28 29 28 30 34 38 39 39 39 39 40 41 41 42 42 43 44 44 43 43 43 42 42 42 42 41 40 38 37 37 35 31 28 25 24 25 25 24 22 21 21 22 23 23 24 24 25 26
17 15 13 13 11 5 2 5 7 8 7 9 12 12 11 10 8 6 7 6 5 6 5 4 5 5 7 12 17 22 20 17 19 21 22 24 25 25 26 28 29 32 35 37 39 40 40 39 39 38 39 41 41 42 43 45 45 45 43 43 42 42 42 41 40 39 38 36 32 28 26 25 24 24 24 23 22 22 23 24 24 24 25 26 27 28
14 15 14 13 12 8 6 5 6 9 8 4 9 8 7 8 8 8 9 9 7 6 6 5 5 6 7 10 17 21 13 9 17 25 25 25 26 26 26 28 30 32 35 36 37 39 40 40 38 36 35 37 36 34 35 36 38 40 41 41 42 42 42 41 40 39 37 33 30 27 26 26 25 25 25 25 24 24 24 25 25 25 27 28 29 29
10 11 13 13 12 9 8 8 8 8 7 1 6 6 5 6 7 9 11 12 10 7 8 9 9 8 8 10 14 15 8 7 16 25 24 23 24 25 26 27 28 29 30 32 34 37 39 40 39 37 36 35 34 32 32 33 35 37 38 39 42 43 42 41 40 38 34 31 29 28 27 27 27 27 27 26 25 25 25 25 26 27 28 28 28 27
9 9 11 13 13 10 8 9 11 8 4 3 5 8 8 6 6 9 12 15 14 10 8 10 11 13 13 15 16 14 9 9 15 18 17 18 20 21 22 22 22 22 23 25 29 33 36 37 38 38 38 38 38 38 38 37 39 39 39 41 43 43 43 42 40 36 33 30 28 28 28 29 29 29 28 26 25 25 25 25 26 27 27 27 26 26
8 8 9 11 12 11 8 7 10 10 3 3 5 8 10 9 9 9 10 13 16 15 10 7 7 10 14 15 15 14 12 11 13 13 14 16 18 17 18 19 18 18 20 22 24 28 31 33 35 36 37 38 39 41 43 43 42 42 42 43 44 44 43 42 39 34 31 29 28 29 29 30 29 28 26 25 25 25 25 25 26 26 26 26 26 27
6 7 9 9 10 11 9 6 8 10 5 3 6 7 8 9 9 9 9 11 14 15 15 11 9 10 14 15 16 16 16 15 16 16 14 15 17 17 17 18 18 19 20 21 22 24 27 31 33 34 36 37 35 36 41 43 42 43 44 44 44 44 42 39 35 31 29 28 29 30 30 30 29 27 26 25 24 25 25 26 26 25 26 27 28 29
Wind_Direction
250 247 247 248 247 243 241 240 237 234 233 231 230 231 232 231 229 230 230 226 224 226 228 228 231 232 233 232 232 231 229 227 223 216 213 213 213 213 216 217 218 220 219 217 217 218 221 224 223 222 227 229 229 233 238 239 241 247 262 272 270 267 277 286 284 280 279 276 277 279 282 285 291 292 289 289 289 289 290 291 291 290 287 286 285 282
250 249 249 248 243 240 239 238 236 233 232 230 229 228 230 230 228 228 229 227 224 224 226 227 229 230 231 231 230 230 228 227 225 219 214 213 214 213 215 218 218 221 221 219 219 220 222 226 227 229 232 234 235 238 241 242 243 249 261 268 267 267 274 280 280 278 276 274 274 275 278 283 289 289 285 285 285 284 287 289 289 288 287 286 284 280
253 252 249 244 239 237 237 237 236 234 231 229 228 227 227 229 228 226 227 227 225 224 224 225 227 228 229 229 228 227 227 225 225 222 216 213 214 214 215 217 219 221 221 221 222 224 227 230 231 233 236 238 240 242 244 245 248 256 263 263 264 268 272 274 275 275 273 271 271 273 277 281 286 285 281 281 280 281 284 287 287 286 285 283 280 279
259 255 247 241 237 236 234 234 235 234 233 230 228 227 225 226 228 225 223 225 225 224 222 222 225 226 226 227 227 226 226 224 223 223 219 215 215 215 217 219 220 222 221 222 224 226 231 233 232 236 238 238 242 246 249 252 256 262 263 261 265 268 269 270 272 272 271 270 271 274 277 279 282 280 278 277 278 279 282 283 283 282 279 276 276 279
263 253 245 240 237 236 235 233 233 234 234 232 229 228 226 224 227 226 222 224 225 224 221 221 224 226 225 226 227 227 227 226 224 222 220 218 216 215 217 219 220 222 223 224 228 229 232 233 233 237 239 241 246 251 255 257 260 263 263 264 266 267 268 269 270 270 270 271 272 274 275 276 276 276 275 275 276 277 279 279 279 277 273 272 275 278
263 250 244 242 237 234 233 232 233 234 234 232 229 227 226 225 226 226 223 223 224 223 220 219 224 226 225 225 226 226 226 225 224 222 221 220 218 215 214 217 219 222 224 226 230 232 233 234 234 238 242 246 251 255 257 258 259 261 262 264 266 266 267 268 269 269 270 271 272 272 272 271 271 273 273 273 274 275 275 276 275 271 269 272 276 278
267 256 251 247 240 234 230 228 230 232 234 233 229 226 225 225 225 225 224 224 224 222 219 218 223 224 223 222 222 221 222 223 222 221 220 219 219 217 214 216 219 222 224 227 229 231 233 234 235 239 243 247 251 254 256 257 258 260 261 263 265 265 265 266 268 269 269 270 270 269 268 267 268 270 271 271 272 272 273 273 271 269 270 272 275 277
272 264 258 255 248 240 234 227 225 229 232 232 229 226 225 225 224 222 223 224 223 222 219 217 221 223 221 219 219 217 217 221 221 220 220 219 219 219 216 215 218 222 225 227 229 230 232 233 235 239 242 246 250 251 253 254 257 260 261 261 263 265 265 266 267 268 268 268 267 266 265 265 266 268 269 270 270 270 271 271 269 269 270 272 274 276
269 267 263 260 255 248 241 232 226 228 230 229 227 226 224 224 223 220 222 223 221 222 219 216 220 225 222 218 217 216 215 218 220 221 221 219 218 219 218 216 217 221 223 225 228 229 231 232 234 236 240 243 246 248 250 253 258 259 258 260 264 265 264 263 264 266 267 266 266 265 265 265 264 266 268 268 267 268 269 268 266 268 270 272 272 272
266 264 260 259 259 253 246 238 230 228 228 226 224 223 222 223 223 220 221 221 220 222 220 214 218 226 224 218 215 215 214 217 220 221 222 221 218 218 219 219 218 220 222 223 225 227 229 231 232 234 237 239 242 245 248 252 256 256 256 261 264 262 259 260 262 263 263 264 265 266 265 264 263 265 266 266 266 266 265 263 264 267 270 270 266 266
263 260 257 255 256 254 247 239 232 228 226 224 221 220 219 222 222 220 220 220 220 222 219 213 216 225 225 218 213 214 215 217 221 222 221 221 219 218 218 219 219 220 222 223 224 226 228 229 229 231 234 237 240 243 246 250 253 253 255 260 260 257 256 259 260 261 261 262 264 265 265 263 263 264 265 264 264 263 261 261 263 267 268 264 261 263
263 261 262 259 252 249 247 239 230 227 226 223 220 217 217 220 221 221 220 220 221 221 217 213 214 222 226 219 212 213 216 216 220 222 220 220 220 219 218 219 220 221 222 223 225 226 228 228 228 229 232 235 238 240 243 248 249 249 252 256 255 254 255 257 260 261 260 260 262 263 264 263 263 263 262 262 262 260 259 260 262 264 263 260 259 262
274 269 267 262 253 247 244 240 229 224 223 222 218 216 215 216 219 221 220 220 222 220 215 213 215 221 227 222 212 211 215 215 218 221 220 219 220 220 218 218 219 221 222 224 225 227 228 228 229 229 232 234 236 238 241 244 244 246 250 252 251 252 254 258 259 259 258 259 261 262 263 264 262 261 261 261 259 257 256 257 260 261 260 258 258 261
282 272 266 261 255 248 242 239 230 221 220 219 216 215 214 213 215 218 219 220 222 220 214 213 217 221 226 224 214 210 213 214 216 220 220 219 218 219 220 219 218 219 222 224 225 227 228 229 229 229 231 233 234 236 238 240 242 244 247 248 249 251 254 257 258 257 257 258 260 262 263 262 261 260 259 258 257 255 254 255 258 260 260 258 259 262
296 277 266 260 253 247 240 236 227 216 214 212 210 209 210 210 213 216 218 219 222 221 215 213 219 222 225 226 219 212 212 214 216 218 220 219 217 217 220 221 218 218 220 223 225 227 228 229 231 230 231 231 232 232 233 235 238 241 242 244 247 249 252 254 256 256 256 258 260 261 261 260 259 258 257 256 256 254 253 255 257 258 258 259 260 263
318 297 267 262 255 246 237 231 224 213 209 207 204 204 206 208 211 215 217 219 220 220 215 213 219 221 221 224 220 213 212 213 214 216 218 220 218 217 218 221 221 219 219 222 224 226 227 228 229 230 229 229 229 230 230 233 236 237 238 241 244 247 248 250 253 254 255 257 259 260 260 259 258 257 255 254 252 252 254 256 256 256 257 259 262 265
326 307 269 268 260 243 231 227 224 213 208 208 204 203 204 206 211 214 217 219 220 220 215 212 217 218 218 221 218 212 211 211 213 215 217 219 220 218 218 220 224 222 220 221 223 225 226 226 228 228 228 228 229 230 231 234 236 235 235 238 241 244 246 248 251 253 255 257 259 259 258 257 256 254 250 249 249 252 256 257 256 256 256 259 263 267
323 303 280 281 264 238 227 225 227 217 210 210 208 205 204 205 209 212 214 216 219 221 216 212 214 215 216 219 216 211 210 211 213 216 218 218 219 219 219 219 223 225 223 222 222 224 226 227 228 228 229 229 230 230 233 235 234 232 232 235 238 241 244 245 248 250 253 255 257 256 255 254 251 248 246 246 248 252 256 257 256 256 258 261 266 270
320 304 290 291 269 241 228 224 226 221 214 211 210 210 207 205 207 211 212 213 216 220 218 214 213 213 215 218 215 213 211 210 213 216 218 218 218 220 221 220 223 226 227 225 224 224 225 226 227 227 228 230 230 230 232 232 229 228 230 233 235 238 240 241 242 245 248 251 253 252 253 252 248 245 243 244 248 252 256 257 258 259 262 266 269 271
316 305 294 291 270 248 235 226 225 224 218 213 210 211 209 207 206 209 212 213 215 220 219 217 215 213 214 216 216 214 211 208 209 211 213 215 217 220 221 221 221 223 225 227 227 226 226 226 227 227 228 229 229 229 230 228 225 225 229 232 233 236 238 239 240 243 246 248 249 250 252 250 245 241 241 243 247 252 255 258 260 262 266 270 271 271
316 307 293 287 270 255 242 230 224 222 218 214 211 211 209 208 208 210 213 214 216 220 221 221 220 215 212 214 211 206 202 201 202 204 206 208 211 216 218 218 219 219 220 223 228 229 228 227 227 227 228 228 227 226 224 222 222 225 228 230 232 234 236 238 239 242 244 246 247 249 249 244 239 238 239 242 247 251 256 259 261 265 269 270 270 270
316 310 298 291 272 255 245 230 221 220 219 214 211 211 209 209 211 212 214 216 219 221 223 225 225 216 210 211 207 199 196 197 199 202 204 204 206 211 215 216 217 217 217 220 224 226 226 226 226 225 225 224 222 220 218 217 219 223 226 228 230 232 234 236 237 239 242 244 245 246 243 238 236 237 238 242 247 251 256 258 260 265 268 268 268 270
317 316 313 299 266 242 236 228 221 219 219 216 211 209 208 208 209 212 214 216 218 221 221 225 226 214 206 209 204 196 193 195 197 201 204 204 206 210 214 215 215 216 217 219 220 219 219 220 221 222 222 220 217 215 214 214 218 221 223 226 229 231 233 235 235 238 241 242 243 243 239 235 235 236 239 243 247 251 256 257 259 264 264 263 265 268
323 321 320 303 276 250 233 227 222 218 218 218 212 208 208 208 208 212 216 216 219 220 219 223 222 208 202 206 201 193 192 194 196 200 204 206 207 209 211 213 215 215 216 218 218 216 213 213 216 218 217 215 213 212 212 213 217 219 221 224 226 229 232 234 234 237 240 241 241 240 236 234 234 236 240 244 248 252 255 256 259 262 261 261 264 265
340 327 318 305 295 279 248 231 225 218 217 217 212 209 209 208 209 214 216 218 220 219 219 223 216 194 193 201 197 192 193 194 194 198 204 208 208 207 209 211 213 214 215 216 215 212 209 210 212 213 212 211 210 210 211 213 216 218 221 223 225 227 231 232 233 236 238 239 239 237 233 232 234 236 241 245 249 252 253 254 257 259 258 259 261 262
1 348 335 321 316 304 267 240 231 222 218 214 211 210 208 207 211 214 215 218 218 215 217 220 207 186 188 197 197 195 194 191 191 198 204 207 207 205 206 209 210 212 215 215 211 208 207 208 209 209 208 208 208 208 210 213 215 218 220 221 223 226 229 231 232 234 235 236 236 233 230 230 233 237 241 245 249 251 252 254 256 256 256 258 259 259
2 357 354 348 339 325 272 241 233 223 216 209 206 209 207 206 210 213 215 214 210 209 212 214 208 191 185 193 200 197 190 186 190 199 205 205 201 199 202 206 208 208 208 208 205 203 204 204 204 205 205 205 206 208 210 212 214 217 219 221 223 225 228 230 231 231 231 231 231 229 227 229 232 237 241 246 249 250 250 252 253 253 254 255 256 259
0 2 2 357 351 355 287 240 229 219 211 202 199 203 204 206 210 212 212 207 205 210 209 211 215 195 175 186 201 195 186 186 193 200 204 201 196 196 200 203 202 199 196 197 198 198 198 199 199 201 202 203 204 207 209 211 213 215 218 220 223 225 228 229 229 228 227 227 227 226 226 228 232 237 242 245 246 246 247 249 251 253 253 253 254 258
6 11 4 357 356 19 15 262 221 214 207 197 195 198 200 204 208 209 209 207 211 216 211 213 216 189 168 187 200 193 188 191 196 201 203 201 198 199 200 199 196 192 190 192 195 195 193 193 195 198 199 201 203 205 208 210 212 215 217 220 223 224 226 227 226 225 224 223 223 223 225 228 232 238 242 243 242 243 245 248 250 252 252 252 253 257
5 8 7 7 8 15 18 16 199 203 198 190 192 196 199 204 207 209 211 212 217 220 216 219 211 182 171 192 198 194 194 195 197 201 203 203 202 201 197 192 190 190 189 189 191 192 192 193 196 198 199 201 203 205 207 210 212 215 218 221 223 225 224 223 221 220 220 220 221 222 224 228 233 238 240 240 240 242 245 248 250 251 251 251 252 256
5 8 15 19 15 14 25 42 97 176 185 185 190 196 201 207 210 212 213 214 221 223 217 218 204 183 180 195 197 195 196 194 195 199 201 203 203 199 192 186 186 187 186 184 183 184 188 192 195 198 201 204 206 207 208 211 214 216 218 221 223 224 223 220 217 216 216 217 219 221 224 229 234 237 238 238 239 241 245 248 250 251 251 251 252 254
5 16 22 22 17 19 31 42 58 115 172 183 191 198 203 208 209 211 213 215 219 217 211 214 206 190 189 196 196 194 192 191 193 196 198 199 199 197 191 186 184 183 180 176 173 175 179 184 188 193 196 200 206 209 211 214 216 217 220 222 223 222 220 217 215 215 215 216 218 220 224 230 235 237 236 236 238 241 246 250 251 252 251 250 250 252
355 10 19 21 23 27 34 41 48 78 168 186 193 198 201 205 207 208 208 206 206 205 209 214 203 191 191 195 194 192 190 190 191 194 196 196 195 195 190 185 184 182 178 174 172 174 179 183 186 188 190 194 202 208 212 215 217 219 220 222 222 219 217 214 213 214 215 216 218 221 225 231 235 237 236 236 239 243 248 251 252 251 250 249 249 251
343 354 6 17 25 29 36 49 58 77 148 186 197 201 205 208 204 191 184 183 184 198 209 209 204 201 199 196 191 189 190 191 191 192 195 195 195 193 189 185 184 182 180 178 177 180 186 190 190 188 189 194 201 207 212 214 215 217 219 220 220 217 214 213 213 214 215 216 218 222 227 232 236 237 236 237 241 246 250 251 251 250 249 249 249 250
342 347 354 10 22 29 40 53 62 83 123 182 202 209 212 204 187 178 176 176 176 196 201 209 217 218 208 196 190 188 190 192 193 192 195 197 195 191 188 188 185 181 180 180 180 184 191 194 194 192 193 198 203 208 212 213 213 215 217 218 217 215 214 213 213 213 214 216 218 222 228 233 237 237 236 238 244 248 250 251 250 248 247 247 247 248
343 350 352 1 12 29 56 62 51 158 156 169 186 192 190 179 170 169 170 168 71 193 207 222 230 224 208 196 193 191 191 195 197 195 197 200 198 192 189 189 187 182 181 180 179 183 190 193 194 196 198 203 207 210 213 213 214 216 216 215 215 215 214 214 213 212 213 215 218 223 229 234 237 238 238 241 246 250 251 250 248 245 244 245 246 248
349 343 345 356 12 41 82 94 273 233 192 176 181 187 184 177 167 145 129 119 14 7 263 247 241 225 209 198 196 196 194 199 202 199 198 202 202 195 187 186 188 185 181 178 177 179 186 193 196 200 203 206 209 211 213 214 215 215 214 212 213 215 215 214 213 212 213 216 219 225 230 234 236 239 241 244 248 250 250 248 245 243 243 243 245 248
13 356 356 18 40 65 106 166 239 241 220 191 182 191 191 183 177 156 89 73 39 36 261 246 236 222 208 196 194 196 195 199 205 203 200 201 203 198 190 187 190 187 180 176 176 178 186 194 198 202 205 208 209 211 213 215 216 214 211 211 212 215 216 215 214 214 215 217 220 226 231 234 237 241 243 246 249 250 249 246 243 242 242 243 246 249
23 17 28 56 71 71 85 165 209 226 225 206 193 193 187 167 158 131 104 107 108 117 163 218 225 219 210 199 195 199 199 201 207 207 202 199 198 197 195 193 193 190 183 179 179 181 187 195 199 202 205 207 209 211 214 215 214 212 210 211 212 214 214 214 215 215 216 219 223 228 231 235 239 242 244 247 249 248 246 243 242 242 242 244 247 250
25 23 34 67 94 84 53 104 185 205 216 211 204 200 188 163 139 106 113 126 126 109 125 179 215 220 217 212 214 223 226 224 220 209 199 196 194 193 193 193 192 189 187 185 183 183 188 194 199 202 206 208 210 213 215 215 213 210 210 211 213 212 212 213 214 214 216 220 224 228 233 237 240 243 244 245 246 245 244 243 242 242 244 246 249 253
23 24 34 59 105 134 104 82 114 167 214 226 221 216 207 200 238 325 93 155 151 107 119 158 201 216 221 219 220 226 225 223 219 197 184 187 192 190 190 192 190 187 187 186 185 186 190 194 198 203 206 209 213 215 216 215 213 210 210 211 211 210 210 211 212 213 216 219 224 229 234 238 242 244 244 243 242 243 244 245 244 245 247 249 252 254
25 27 34 46 88 144 176 149 106 135 193 224 230 232 237 251 274 287 279 216 224 162 145 154 180 203 214 217 218 216 208 207 207 193 177 179 184 186 190 192 189 185 184 184 185 188 192 196 201 205 208 210 213 215 216 216 215 212 210 209 209 208 210 211 210 211 215 219 224 230 235 239 245 245 242 241 241 240 240 242 245 247 249 252 253 254
31 31 32 35 66 126 183 211 220 220 211 207 215 228 244 265 278 278 268 268 279 247 189 191 200 198 200 208 214 210 193 192 195 191 183 179 181 185 188 186 182 179 180 183 186 190 194 197 201 205 208 211 213 214 215 216 215 213 211 208 207 208 210 211 211 211 214 218 225 231 235 241 245 244 242 243 243 239 237 241 246 248 250 252 253 254
33 34 31 28 40 111 167 202 241 260 254 240 234 231 232 249 273 277 267 258 250 240 224 228 226 198 185 191 193 179 175 187 191 188 188 188 188 189 189 186 183 181 182 185 189 194 198 199 201 204 207 209 211 213 215 215 214 213 211 208 206 207 209 211 211 211 213 218 225 231 237 243 246 244 243 245 243 238 239 244 246 248 251 253 254 257
30 33 30 23 18 22 194 222 256 270 267 257 254 246 234 234 252 272 273 255 240 248 259 222 204 182 173 181 178 162 165 184 192 194 198 200 197 194 191 191 191 191 192 193 196 201 205 206 206 208 209 210 212 212 213 213 212 212 211 208 207 207 208 210 211 211 213 218 225 231 237 242 243 240 240 243 242 239 241 244 246 248 252 254 257 259
24 22 20 16 14 9 280 266 285 308 304 266 252 249 241 234 242 261 271 271 265 266 264 236 217 196 172 173 168 156 154 172 187 191 196 200 201 199 196 196 198 201 204 205 204 207 211 214 214 213 211 213 215 215 215 214 212 211 210 208 207 208 209 209 210 211 214 219 224 231 236 237 236 235 235 238 239 238 240 243 246 250 254 257 259 261
14 12 11 10 8 7 358 329 324 347 353 285 236 246 262 253 246 258 272 276 273 260 251 252 239 202 183 174 166 161 164 200 200 192 190 192 196 200 201 202 205 209 212 213 212 214 216 219 221 220 217 217 219 221 222 223 220 217 213 209 207 208 208 209 210 211 214 219 223 228 231 231 231 231 233 234 236 238 241 245 249 252 255 257 259 260
5 5 8 7 0 356 358 353 348 3 23 75 209 228 272 271 249 255 270 274 271 270 273 272 255 227 222 222 201 192 216 240 199 190 191 192 195 200 204 207 212 216 219 220 220 221 221 220 222 223 222 220 220 221 222 224 225 223 218 213 210 209 209 209 211 213 215 219 223 226 226 226 227 229 232 235 238 242 246 249 251 253 254 256 259 261
7 2 7 9 0 350 349 351 350 358 44 121 193 215 226 247 259 258 262 259 253 258 278 277 257 242 244 248 234 218 210 195 188 192 198 200 202 207 211 214 221 226 227 227 227 227 227 224 223 224 225 223 221 220 219 219 218 217 216 215 213 211 210 211 212 213 215 218 221 222 222 224 227 230 234 237 242 247 250 252 253 254 256 258 260 260
2 352 359 7 359 346 340 347 352 354 4 175 206 215 216 235 254 251 250 254 251 248 253 271 271 252 246 246 238 223 208 204 212 219 215 206 206 212 217 221 225 228 229 232 234 235 234 231 229 230 231 229 225 220 218 217 215 211 210 211 211 210 210 211 212 213 215 217 219 220 222 226 230 234 238 242 246 250 251 252 253 254 256 258 258 258
343 339 348 0 357 345 338 343 353 352 338 218 213 217 221 237 247 244 251 266 266 252 243 255 288 280 260 255 250 240 233 232 236 238 232 221 216 216 221 226 228 229 231 235 237 238 238 238 238 237 236 234 231 225 219 215 212 208 205 206 207 208 210 211 212 214 216 217 219 221 224 229 233 237 242 246 248 250 250 251 253 255 257 258 259 261